EW5804 Weather Reports


Display with metric or nautical units.
time (UTC)temp
F
wind
direction
speed
MPH
gust
MPH
rain 1hr
in
rain 24hr
in
rain mn
in
humidity
%
barometer
mb
20260904093902 78 9 0.0 0.0 0.00 0.00 0.00 88 1014.6
20260904093403 78 10 0.0 0.0 0.00 0.00 0.00 88 1014.8
20260904092903 78 9 0.0 0.0 0.00 0.00 0.00 87 1014.8
20260904092402 78 10 0.0 0.0 0.00 0.00 0.00 87 1014.7
20260904091903 78 9 0.0 0.0 0.00 0.00 0.00 87 1014.7
20260904091402 79 9 0.0 0.0 0.00 0.00 0.00 87 1014.8
20260904091121 79 9 0.0 0.0 0.00 0.00 0.00 86 1014.7
20260904090400 79 9 1.0 3.0 0.00 0.00 0.00 86 1014.8
20260904085854 79 9 1.0 3.0 0.00 0.00 0.00 86 1014.8
20260904085349 79 9 1.0 2.0 0.00 0.00 0.00 86 1014.8
20260904084843 79 9 1.0 2.0 0.00 0.00 0.00 86 1015.0
20260904084336 79 6 1.0 2.0 0.00 0.00 0.00 85 1014.9
20260904083829 79 6 1.0 5.0 0.00 0.00 0.00 86 1015.1
20260904083323 79 3 1.0 5.0 0.00 0.00 0.00 86 1015.2
20260904082821 79 322 1.0 2.0 0.00 0.00 0.00 86 1015.0
20260904082313 79 321 1.0 4.0 0.00 0.00 0.00 86 1014.6
20260904081806 80 324 2.0 5.0 0.00 0.00 0.00 86 1014.6
20260904081301 79 9 1.0 5.0 0.00 0.00 0.00 86 1014.4
20260904080755 80 242 1.0 4.0 0.00 0.00 0.00 86 1013.9
20260904080518 80 242 1.0 5.0 0.00 0.00 0.00 86 1013.9
20260904075742 80 170 2.0 5.0 0.00 0.00 0.00 86 1013.9
20260904075235 80 190 2.0 4.0 0.00 0.00 0.00 86 1014.2
20260904075209 79 244 2.0 4.0 0.00 0.00 0.00 86 1014.6
20260904074225 79 182 2.0 7.0 0.00 0.00 0.00 87 1014.1
20260904073718 79 160 3.0 7.0 0.00 0.00 0.00 87 1014.1
20260904073212 79 355 1.0 6.0 0.00 0.00 0.00 87 1014.9
20260904072706 79 322 0.0 4.0 0.00 0.00 0.00 87 1014.0
20260904072159 79 222 0.0 2.0 0.00 0.00 0.00 87 1013.8
20260904071654 79 222 0.0 2.0 0.00 0.00 0.00 87 1013.6
20260904071149 79 223 1.0 3.0 0.00 0.00 0.00 87 1013.6
20260904070642 79 222 1.0 3.0 0.00 0.00 0.00 87 1013.6
20260904070148 79 217 1.0 3.0 0.00 0.00 0.00 87 1013.5
20260904065848 79 224 1.0 3.0 0.00 0.00 0.00 87 1013.5
20260904065124 79 209 1.0 4.0 0.00 0.00 0.00 87 1013.5
20260904064618 79 208 1.0 4.0 0.00 0.00 0.00 87 1013.5
20260904064111 79 214 1.0 5.0 0.00 0.00 0.00 87 1013.7
20260904063607 79 214 1.0 5.0 0.00 0.00 0.00 87 1013.7
20260904063258 79 230 1.0 6.0 0.00 0.00 0.00 86 1014.0
20260904063143 79 229 0.0 2.0 0.00 0.00 0.00 87 1013.9
20260904062047 80 230 1.0 6.0 0.00 0.00 0.00 87 1014.0
20260904061541 80 197 1.0 4.0 0.00 0.00 0.00 86 1014.0
20260904061036 80 271 1.0 4.0 0.00 0.00 0.00 86 1014.0
20260904060749 80 215 2.0 5.0 0.00 0.00 0.00 86 1014.1
20260904060024 80 240 2.0 5.0 0.00 0.00 0.00 86 1014.2
20260904055519 80 201 1.0 4.0 0.00 0.00 0.00 86 1014.2
20260904055012 80 226 2.0 6.0 0.00 0.00 0.00 86 1014.2
20260904054505 80 215 2.0 6.0 0.00 0.00 0.00 87 1014.2
20260904054001 80 273 2.0 5.0 0.00 0.00 0.00 87 1014.3
20260904053454 80 264 2.0 4.0 0.00 0.00 0.00 87 1014.2
20260904052948 80 173 2.0 4.0 0.00 0.00 0.00 87 1014.4
20260904052638 80 207 1.0 3.0 0.00 0.00 0.00 87 1014.7
20260904052523 80 226 1.0 4.0 0.00 0.00 0.00 87 1014.6
20260904051652 80 183 1.0 6.0 0.00 0.00 0.00 87 1014.8
20260904050925 80 282 1.0 6.0 0.00 0.00 0.00 87 1014.9
20260904050417 80 219 1.0 2.0 0.00 0.00 0.00 87 1014.9
20260904045911 80 226 2.0 7.0 0.00 0.00 0.00 87 1014.9
20260904045407 80 226 2.0 7.0 0.00 0.00 0.00 88 1014.9
20260904044908 80 205 2.0 8.0 0.00 0.00 0.00 88 1015.0
20260904044406 80 247 2.0 8.0 0.00 0.00 0.00 88 1014.9
20260904043906 80 213 2.0 5.0 0.00 0.00 0.00 88 1014.9
20260904043406 80 207 2.0 5.0 0.00 0.00 0.00 89 1014.8
20260904042902 80 206 1.0 4.0 0.00 0.00 0.00 89 1014.8
20260904042400 80 211 1.0 3.0 0.00 0.00 0.00 89 1014.9
20260904041901 80 201 1.0 3.0 0.00 0.00 0.00 89 1014.9
20260904041403 80 199 1.0 3.0 0.00 0.00 0.00 89 1014.9
20260904040858 80 256 1.0 6.0 0.00 0.00 0.00 89 1014.8
20260904040358 80 172 1.0 6.0 0.00 0.00 0.00 89 1014.9
20260904040116 80 207 1.0 6.0 0.00 0.00 0.00 89 1014.9
20260904035358 80 194 1.0 6.0 0.00 0.00 0.00 89 1014.9
20260904034858 80 203 1.0 4.0 0.00 0.00 0.00 89 1015.0
20260904034358 80 203 1.0 4.0 0.00 0.00 0.00 89 1014.8
20260904033859 80 213 1.0 2.0 0.00 0.00 0.00 89 1014.8
20260904033545 80 218 1.0 4.0 0.00 0.00 0.00 89 1014.8
20260904033438 80 206 1.0 4.0 0.00 0.00 0.00 89 1014.9
20260904032337 80 215 1.0 2.0 0.00 0.00 0.00 89 1014.9
20260904031837 80 214 1.0 2.0 0.00 0.00 0.00 89 1014.8
20260904031334 81 183 0.0 2.0 0.00 0.00 0.00 89 1014.7
20260904030833 81 183 0.0 2.0 0.00 0.00 0.00 89 1014.8
20260904030552 81 272 0.0 2.0 0.00 0.00 0.00 89 1014.9
20260904025823 81 190 0.0 2.0 0.00 0.00 0.00 89 1014.8
20260904025316 81 181 0.0 1.0 0.00 0.00 0.00 89 1014.8
20260904024811 81 180 0.0 2.0 0.00 0.00 0.00 89 1014.8
20260904024304 81 180 0.0 2.0 0.00 0.00 0.00 89 1014.8
20260904024018 81 27 0.0 1.0 0.00 0.00 0.00 89 1015.0
20260904023449 81 27 0.0 1.0 0.00 0.00 0.00 89 1015.0
20260904023338 81 28 0.0 1.0 0.00 0.00 0.00 88 1015.0
20260904022500 81 27 0.0 2.0 0.00 0.00 0.00 88 1015.1
20260904021734 81 28 0.0 2.0 0.00 0.00 0.00 88 1015.1
20260904021229 81 26 0.0 1.0 0.00 0.00 0.00 88 1015.1
20260904020721 81 26 0.0 1.0 0.00 0.00 0.00 88 1015.2
20260904020215 81 26 0.0 1.0 0.00 0.00 0.00 88 1015.3
20260904015710 82 27 0.0 1.0 0.00 0.00 0.00 88 1015.2
20260904015204 82 26 0.0 1.0 0.00 0.00 0.00 88 1015.2
20260904014658 82 27 0.0 0.0 0.00 0.00 0.00 88 1015.3
20260904014151 82 26 0.0 0.0 0.00 0.00 0.00 88 1015.5
20260904013647 82 26 0.0 1.0 0.00 0.00 0.00 88 1015.5
20260904013408 82 26 0.0 1.0 0.00 0.00 0.00 87 1015.5
20260904012635 82 26 0.0 1.0 0.00 0.00 0.00 87 1015.6
20260904012128 82 26 0.0 1.0 0.00 0.00 0.00 87 1015.6
20260904011623 82 26 0.0 1.0 0.00 0.00 0.00 86 1015.6
20260904011116 83 26 0.0 1.0 0.00 0.00 0.00 86 1015.6
20260904010610 83 26 0.0 1.0 0.00 0.00 0.00 86 1015.4
20260904010117 83 26 0.0 0.0 0.00 0.00 0.00 86 1015.4
20260904005557 83 26 0.0 0.0 0.00 0.00 0.00 85 1015.4
20260904005052 83 26 0.0 0.0 0.00 0.00 0.00 85 1015.3
20260904004547 83 24 0.0 0.0 0.00 0.00 0.00 85 1015.1
20260904004041 84 26 0.0 1.0 0.00 0.00 0.00 85 1015.2
20260904003533 84 26 0.0 1.0 0.00 0.00 0.00 85 1015.2
20260904003254 84 26 0.0 1.0 0.00 0.00 0.00 85 1015.0
20260904002521 84 26 0.0 0.0 0.00 0.00 0.00 84 1015.0
20260904002232 84 26 0.0 0.0 0.00 0.00 0.00 84 1015.0
20260904001509 84 26 0.0 1.0 0.00 0.00 0.00 84 1014.8
20260904001006 85 26 0.0 1.0 0.00 0.00 0.00 84 1014.6
20260904000458 85 26 0.0 0.0 0.00 0.00 0.00 84 1014.6
20260903235952 85 26 0.0 0.0 0.00 0.00 0.00 83 1014.5
20260903235710 85 26 0.0 0.0 0.00 0.00 0.00 83 1014.4
20260903235202 85 26 0.0 0.0 0.00 0.00 0.00 83 1014.3
20260903234433 86 26 0.0 1.0 0.00 0.00 0.00 82 1014.3
20260903233928 86 26 0.0 1.0 0.00 0.00 0.00 83 1014.2
20260903233422 86 26 0.0 1.0 0.00 0.00 0.00 82 1014.2
20260903232916 87 26 0.0 1.0 0.00 0.00 0.00 82 1014.1
20260903232639 87 26 0.0 1.0 0.00 0.00 0.00 82 1014.1
20260903231904 87 26 0.0 1.0 0.00 0.00 0.00 81 1014.1
20260903231359 87 26 0.0 1.0 0.00 0.00 0.00 81 1014.0
20260903231111 88 26 0.0 1.0 0.00 0.00 0.00 81 1014.1
20260903230346 88 26 0.0 1.0 0.00 0.00 0.00 80 1013.9
20260903225552 89 26 0.0 2.0 0.00 0.00 0.00 79 1013.8
20260903224827 89 26 0.0 1.0 0.00 0.00 0.00 79 1013.9
20260903224322 89 26 0.0 0.0 0.00 0.00 0.00 78 1013.8
20260903223816 89 26 0.0 2.0 0.00 0.00 0.00 78 1013.9
20260903223530 90 26 1.0 2.0 0.00 0.00 0.00 78 1013.9
20260903222804 90 26 1.0 5.0 0.00 0.00 0.00 77 1013.9
20260903222519 90 43 2.0 5.0 0.00 0.00 0.00 77 1013.9
20260903221752 91 44 3.0 6.0 0.00 0.00 0.00 76 1013.8
20260903221246 91 46 4.0 6.0 0.00 0.00 0.00 75 1013.8
20260903220742 91 46 4.0 6.0 0.00 0.00 0.00 75 1013.9
20260903220235 92 51 2.0 6.0 0.00 0.00 0.00 74 1014.0
20260903215949 92 36 2.0 5.0 0.00 0.00 0.00 74 1014.0
20260903215225 93 36 3.0 6.0 0.00 0.00 0.00 73 1014.0
20260903214719 94 44 1.0 6.0 0.00 0.00 0.00 71 1014.0
20260903214219 94 280 0.0 1.0 0.00 0.00 0.00 72 1014.1
20260903213719 95 280 0.0 1.0 0.00 0.00 0.00 71 1014.0
20260903213219 95 281 0.0 1.0 0.00 0.00 0.00 71 1014.0
20260903212936 96 281 0.0 1.0 0.00 0.00 0.00 69 1013.9
20260903212217 96 280 0.0 2.0 0.00 0.00 0.00 69 1014.0
20260903211719 96 280 1.0 2.0 0.00 0.00 0.00 68 1013.9
20260903211218 96 280 1.0 2.0 0.00 0.00 0.00 64 1014.1
20260903210718 96 281 1.0 3.0 0.00 0.00 0.00 65 1014.0
20260903210217 96 281 1.0 3.0 0.00 0.00 0.00 66 1014.0
20260903205720 96 281 1.0 4.0 0.00 0.00 0.00 67 1014.0
20260903205216 96 280 1.0 4.0 0.00 0.00 0.00 64 1014.1
20260903204716 96 265 2.0 4.0 0.00 0.00 0.00 68 1014.1
20260903204218 96 265 2.0 4.0 0.00 0.00 0.00 66 1014.1
20260903203711 96 275 1.0 6.0 0.00 0.00 0.00 67 1014.2
20260903203212 96 259 1.0 6.0 0.00 0.00 0.00 64 1014.3
20260903202713 96 267 1.0 4.0 0.00 0.00 0.00 66 1014.3
20260903202437 96 291 1.0 4.0 0.00 0.00 0.00 67 1014.4
20260903201938 96 262 1.0 3.0 0.00 0.00 0.00 69 1014.6
20260903201212 96 269 2.0 5.0 0.00 0.00 0.00 66 1014.6
20260903200712 96 250 2.0 5.0 0.00 0.00 0.00 64 1014.7
20260903200211 96 248 2.0 4.0 0.00 0.00 0.00 65 1014.8
20260903195713 96 227 2.0 5.0 0.00 0.00 0.00 67 1014.7
20260903195211 96 290 2.0 5.0 0.00 0.00 0.00 65 1014.8
20260903194712 96 261 2.0 4.0 0.00 0.00 0.00 66 1014.8
20260903194214 96 276 1.0 4.0 0.00 0.00 0.00 71 1015.0
20260903193711 96 273 1.0 3.0 0.00 0.00 0.00 69 1015.1
20260903193211 95 286 1.0 3.0 0.00 0.00 0.00 68 1015.1
20260903192712 95 284 1.0 3.0 0.00 0.00 0.00 69 1015.1
20260903192433 95 288 2.0 5.0 0.00 0.00 0.00 66 1015.2
20260903191712 94 288 2.0 5.0 0.00 0.00 0.00 67 1015.3
20260903191210 94 289 3.0 7.0 0.00 0.00 0.00 67 1015.4
20260903190705 95 288 3.0 7.0 0.00 0.00 0.00 66 1015.3
20260903190159 94 248 2.0 6.0 0.00 0.00 0.00 67 1015.5
20260903185651 94 313 1.0 4.0 0.00 0.00 0.00 68 1015.5
20260903185147 94 323 2.0 4.0 0.00 0.00 0.00 68 1015.6
20260903185116 93 311 2.0 5.0 0.00 0.00 0.00 67 1015.7
20260903184355 93 296 2.0 5.0 0.00 0.00 0.00 69 1015.7
20260903183848 93 44 2.0 5.0 0.00 0.00 0.00 69 1015.9
20260903183123 94 36 2.0 5.0 0.00 0.00 0.00 68 1015.9
20260903182616 94 294 1.0 5.0 0.00 0.00 0.00 68 1016.0
20260903182112 94 296 0.0 2.0 0.00 0.00 0.00 70 1016.1
20260903181605 94 249 2.0 5.0 0.00 0.00 0.00 69 1016.1
20260903181058 94 249 3.0 6.0 0.00 0.00 0.00 68 1016.1
20260903180606 94 258 2.0 6.0 0.00 0.00 0.00 68 1016.1
20260903180059 94 291 2.0 5.0 0.00 0.00 0.00 70 1016.2
20260903175756 93 257 2.0 4.0 0.00 0.00 0.00 70 1016.3
20260903175036 93 296 2.0 4.0 0.00 0.00 0.00 69 1016.3
20260903174542 93 261 1.0 3.0 0.00 0.00 0.00 69 1016.3
20260903174037 93 205 1.0 3.0 0.00 0.00 0.00 68 1016.4
20260903173737 93 212 1.0 4.0 0.00 0.00 0.00 69 1016.4
20260903173231 92 210 1.0 4.0 0.00 0.00 0.00 70 1016.4
20260903172741 92 195 1.0 4.0 0.00 0.00 0.00 71 1016.4
20260903172218 92 268 1.0 4.0 0.00 0.00 0.00 71 1016.5
20260903171452 91 228 1.0 3.0 0.00 0.00 0.00 70 1016.6
20260903171208 91 39 0.0 2.0 0.00 0.00 0.00 72 1016.6
20260903170439 90 39 0.0 2.0 0.00 0.00 0.00 73 1016.6
20260903165934 90 39 2.0 4.0 0.00 0.00 0.00 74 1016.6
20260903165428 90 39 3.0 9.0 0.00 0.00 0.00 74 1016.7
20260903164921 90 35 4.0 9.0 0.00 0.00 0.00 75 1016.8
20260903164417 90 116 3.0 8.0 0.00 0.00 0.00 74 1016.8
20260903163911 90 29 1.0 5.0 0.00 0.00 0.00 74 1016.7
20260903163405 90 149 1.0 4.0 0.00 0.00 0.00 76 1016.8
20260903163121 89 201 2.0 5.0 0.00 0.00 0.00 77 1016.8
20260903162353 89 24 2.0 8.0 0.00 0.00 0.00 76 1016.8
20260903161847 89 76 2.0 8.0 0.00 0.00 0.00 75 1016.9
20260903161602 89 178 1.0 3.0 0.00 0.00 0.00 77 1017.0
20260903160835 88 58 1.0 3.0 0.00 0.00 0.00 76 1017.1
20260903160328 88 7 1.0 3.0 0.00 0.00 0.00 77 1017.1
20260903155824 87 236 1.0 4.0 0.00 0.00 0.00 76 1017.3
20260903155322 87 20 2.0 4.0 0.00 0.00 0.00 77 1017.3
20260903154822 87 51 3.0 6.0 0.00 0.00 0.00 79 1017.3
20260903154320 87 46 4.0 9.0 0.00 0.00 0.00 80 1017.3
20260903154048 87 19 3.0 9.0 0.00 0.00 0.00 79 1017.5
20260903153319 87 5 3.0 6.0 0.00 0.00 0.00 79 1017.5
20260903153045 87 34 2.0 6.0 0.00 0.00 0.00 79 1017.4
20260903152545 87 88 1.0 7.0 0.00 0.00 0.00 80 1017.4
20260903151817 86 69 2.0 7.0 0.00 0.00 0.00 79 1017.3
20260903151315 86 125 2.0 5.0 0.00 0.00 0.00 80 1017.3
20260903151031 85 43 2.0 5.0 0.00 0.00 0.00 80 1017.4
20260903150318 85 321 2.0 4.0 0.00 0.00 0.00 81 1017.3
20260903145806 85 28 2.0 5.0 0.00 0.00 0.00 83 1017.3
20260903145252 84 28 2.0 5.0 0.00 0.00 0.00 82 1017.4
20260903144747 84 6 1.0 5.0 0.00 0.00 0.00 84 1017.4
20260903144725 83 27 2.0 4.0 0.00 0.00 0.00 85 1017.4
20260903143955 83 12 2.0 4.0 0.00 0.00 0.00 86 1017.4
20260903143228 83 106 2.0 5.0 0.00 0.00 0.00 87 1017.3
20260903142723 82 16 2.0 5.0 0.00 0.00 0.00 88 1017.4
20260903142217 81 3 3.0 6.0 0.00 0.00 0.00 89 1017.5
20260903141711 81 59 3.0 6.0 0.00 0.00 0.00 90 1017.3
20260903141205 80 53 2.0 6.0 0.00 0.00 0.00 91 1017.4
20260903140659 80 59 2.0 4.0 0.00 0.00 0.00 92 1017.4
20260903140152 80 322 2.0 4.0 0.00 0.00 0.00 92 1017.3
20260903135647 80 245 3.0 6.0 0.00 0.00 0.00 93 1017.2
20260903135143 79 242 2.0 6.0 0.00 0.00 0.00 93 1017.2
20260903134854 79 290 1.0 3.0 0.00 0.00 0.00 93 1017.1
20260903134129 79 290 2.0 3.0 0.00 0.00 0.00 93 1017.2
20260903133623 79 288 1.0 3.0 0.00 0.00 0.00 93 1017.1
20260903133118 78 252 1.0 3.0 0.00 0.00 0.00 93 1017.1
20260903132614 78 252 1.0 3.0 0.00 0.00 0.00 93 1017.1
20260903132104 78 205 1.0 3.0 0.00 0.00 0.00 93 1017.1
20260903131601 78 217 1.0 3.0 0.00 0.00 0.00 93 1017.3
20260903131058 78 255 0.0 2.0 0.00 0.00 0.00 93 1017.4
20260903130558 78 254 1.0 3.0 0.00 0.00 0.00 93 1017.4
20260903130056 78 254 1.0 3.0 0.00 0.00 0.00 93 1017.4
20260903125549 77 199 1.0 3.0 0.00 0.00 0.00 93 1017.3
20260903125031 77 199 1.0 2.0 0.00 0.00 0.00 93 1017.4
20260903124524 77 199 0.0 2.0 0.00 0.00 0.00 93 1017.5
20260903124017 77 199 1.0 2.0 0.00 0.00 0.00 93 1017.7
20260903123523 77 200 1.0 2.0 0.00 0.00 0.00 93 1017.6
20260903123017 77 199 0.0 2.0 0.00 0.00 0.00 93 1017.6
20260903122737 77 200 0.0 2.0 0.00 0.00 0.00 93 1017.6
20260903122300 77 200 0.0 2.0 0.00 0.00 0.00 93 1017.6
20260903121528 76 199 0.0 2.0 0.00 0.00 0.00 93 1017.6
20260903121237 76 184 0.0 2.0 0.00 0.00 0.00 93 1017.4
20260903120528 76 184 1.0 3.0 0.00 0.00 0.00 93 1017.2
20260903120016 76 180 1.0 3.0 0.00 0.00 0.00 93 1017.2
20260903115514 76 47 0.0 1.0 0.00 0.00 0.00 93 1017.2
20260903115010 76 47 0.0 2.0 0.00 0.00 0.00 93 1017.1
20260903114511 76 47 0.0 2.0 0.00 0.00 0.00 93 1017.1
20260903114007 76 47 0.0 2.0 0.00 0.00 0.00 92 1017.1
20260903113508 76 47 1.0 2.0 0.00 0.00 0.00 93 1017.1
20260903113020 76 47 0.0 2.0 0.00 0.00 0.00 93 1016.9
20260903112511 76 313 0.0 0.0 0.00 0.00 0.00 93 1016.9
20260903112015 76 312 0.0 0.0 0.00 0.00 0.00 93 1016.9
20260903111722 76 313 0.0 0.0 0.00 0.00 0.00 93 1017.0
20260903111017 76 313 0.0 0.0 0.00 0.00 0.00 93 1017.0
20260903110530 75 313 0.0 0.0 0.00 0.00 0.00 93 1016.9
20260903110004 75 312 0.0 0.0 0.00 0.00 0.00 92 1016.9
20260903105504 75 312 0.0 0.0 0.00 0.00 0.00 92 1016.8
20260903105003 75 313 0.0 0.0 0.00 0.00 0.00 92 1016.8
20260903104505 75 313 0.0 0.0 0.00 0.00 0.00 92 1016.8
20260903104003 75 313 0.0 0.0 0.00 0.00 0.00 92 1016.7
20260903103727 75 314 0.0 0.0 0.00 0.00 0.00 92 1016.6
20260903103003 75 312 0.0 0.0 0.00 0.00 0.00 92 1016.6
20260903102505 75 312 0.0 0.0 0.00 0.00 0.00 93 1016.6
20260903102002 75 312 0.0 0.0 0.00 0.00 0.00 92 1016.7
20260903101506 75 312 0.0 0.0 0.00 0.00 0.00 92 1016.7
20260903101005 75 23 0.0 0.0 0.00 0.00 0.00 92 1016.7
20260903100505 75 24 0.0 0.0 0.00 0.00 0.00 92 1016.7
20260903100004 75 23 0.0 0.0 0.00 0.00 0.00 92 1016.6
20260903095507 75 23 0.0 0.0 0.00 0.00 0.00 92 1016.5
20260903094955 75 23 0.0 0.0 0.00 0.00 0.00 92 1016.4
20260903094451 75 23 0.0 0.0 0.00 0.00 0.00 92 1016.4
20260903094210 75 23 0.0 0.0 0.00 0.00 0.00 92 1016.4